Location: Marion Hill
(40.7303°N, 80.2959°W)
Time: 18:47:06
(UTC+00:00)

SMAP - Pass Details

Date: 29 October 2020
Orbit: 681 x 683 km, 98.1° (Epoch: 24 November)

Event Time Altitude Azimuth Distance (km) Brightness Sun altitude
Rises 22:54:29 0° 171° (S) 3,030 6.4 -7.1°
Reaches altitude 10° 22:56:43 10° 173° (S) 2,119 5.7 -7.5°
Maximum altitude 23:01:20 73° 258° (WSW) 717 3.4 -8.3°
Drops below altitude 10° 23:06:00 10° 343° (NNW) 2,134 5.7 -9.2°
Sets 23:08:16 0° 346° (NNW) 3,053 6.5 -9.6°
